Powrót do katalogu

FENGYUN 1C DEB

AktywnySSO
NORAD 30117·DEBRIS·🇨🇳 China

Wystrzelony May 10, 1999 z Taiyuan Satellite Launch Center

Loading…

Następne Przeloty (najbliższe 24 godziny)

TLE

ŚwieżeSource: Space-Track

Epoka: Sep 14, 2026, 09:54 UTC

1 30117U 99025RW  26257.41280578  .00000208  00000-0  13149-3 0  9995
2 30117  98.8278 244.2628 0164270 153.4229   4.7091 14.07351020  8664

Śledź FENGYUN 1C DEB w czasie rzeczywistym z AllMySat

Download on the App Store